Location: Altoona
(40.5167°N, 78.4000°W)
Time: 00:53:49
(UTC-04:00)

BREEZE M DEB (TANK) - Pass Details

Date: 21 August 2017
Orbit: 307 x 16214 km, 49.4° (Epoch: 22 September)

Event Time Altitude Azimuth Distance (km) Brightness Sun altitude
Rises 22:25:18 0° 240° (WSW) 5,882 7.8 -24.4°
Reaches altitude 10° 22:30:48 10° 243° (WSW) 3,356 6.5 -25.2°
Enters shadow 22:36:27 55° 269° (W) 714 3.0 -26.0°
